STARLINK-1723, 46333

Orbit data source: Space-Track

STARLINK-1723, 46333 is a payload satellite owned by SpaceX/Seattle (US) in LEO that was launched on Thu, 03 Sep 2020 UTC via an FALCON 9 launch vehicle from the Air Force Eastern Test Range (AFETR). Payload-class satellites include a variety of spacecraft equipped with specific instruments for various scientific and technological missions. These include communications satellites like Starlink; space stations such as the ISS; scientific satellites like the Hubble; Earth observation satellites from companies like Planet Labs, Umbra, and HawkEye 360; GPS; miniature CubeSats for education and research; and military/defense satellites.

Loading next visibility...
Identifier
46333, 2020-062J
Orbit
LEO
Country
Flag of USUS
Related business
Manufacturer
SpaceX/Seattle
Mission
Partially operational Commercial Communications
Bus & Motor
STARLINK, Unknown motor
Mass
260 kg wet, ~248 kg dry
Launch date (UTC)
2020-09-03 (5 years ago)
Launch vehicle
FALCON 9
Launch site
Air Force Eastern Test Range (AFETR)
Object type
Payload
Rocket body
Debris
Shape & HBR
Box + 1 Pan, 10.1 m
Radar Cross Section
13.562 m², Large (>1 m²)

Expand to show TLE details & history
Last TLE update: 7 hours ago

TLE from 7 hours ago
0 STARLINK-1723
1 46333U 20062J   25342.81677949  .00133667  00000-0  25298-2 0  9990
2 46333  53.0512  53.7469 0008171 346.9450  13.1345 15.47412723290766
Epoch: 2025-12-08T19:36Z
TLE epoch observation values (Epoch: 2025-12-08T19:36:09.747Z)
Latitude
0.00003°
Longitude
41.89593°
Altitude
419.78 km
Speed
7.664 km/s
True Right ascension
03h 34m 59s
True Declination
0° 00' 00"
Sunlit
Object was in full shadow at epoch
Visualization orbit readout
Latitude
Unknown
Longitude
Unknown
Altitude
Unknown
Speed
Unknown
Apparent Right ascension
Unknown
Apparent Declination
Unknown
Sunlit
N/A
Visualization observer readout
Local Sidereal Time
00:30:24
Azimuth
Unknown
Elevation
Unknown
Doppler factor
Unknown
Orbital elements
Apogee altitude
430.132 km
Perigee altitude
419.015 km
Semi-major axis
6,802.711 km
Eccentricity
0.00082
Inclination
53.0512°
RAAN
53.7469°
Arg. of periapsis
346.945°
True anomaly
13.1558°
Mean anomaly
13.1345°
Eccentric anomaly
13.14515°
Mean motion
3.8683 °/min
Orbital period
93.06 mins
BSTAR
0.0025298
Loading maneuver chart data...
Computing Atmospheric mass density...

Documentation

Showing up to 5 results
|